�������r�C�����j�^�v���󋵏��
Date,Time,5�C6���@���p�r�C��,����,����(m/s)
2021/05/16,00:00,4.0,��,9.1
2021/05/16,00:10,3.9,��,9.1
2021/05/16,00:20,4.0,��,10.6
2021/05/16,00:30,3.8,��,10.7
2021/05/16,00:40,4.0,��,10.2
2021/05/16,00:50,3.9,��,10.2
2021/05/16,01:00,4.0,��,11.0
2021/05/16,01:10,4.0,��,12.0
2021/05/16,01:20,3.9,��,11.0
2021/05/16,01:30,3.8,��,11.0
2021/05/16,01:40,3.8,��쓌,10.7
2021/05/16,01:50,4.0,��,9.5
2021/05/16,02:00,3.9,��,9.4
2021/05/16,02:10,3.9,��,8.7
2021/05/16,02:20,3.9,��,7.6
2021/05/16,02:30,3.8,��,7.3
2021/05/16,02:40,3.7,��,7.8
2021/05/16,02:50,3.9,��,7.3
2021/05/16,03:00,3.9,��,8.0
2021/05/16,03:10,4.0,��,8.4
2021/05/16,03:20,3.8,��,8.9
2021/05/16,03:30,4.0,��,8.7
2021/05/16,03:40,3.9,��,8.3
2021/05/16,03:50,3.7,��,7.9
2021/05/16,04:00,3.9,��,7.9
2021/05/16,04:10,3.8,��,8.6
2021/05/16,04:20,3.9,��,9.8
2021/05/16,04:30,4.0,��,9.8
2021/05/16,04:40,4.0,��,10.2
2021/05/16,04:50,3.7,��,7.9
2021/05/16,05:00,3.8,��,8.7
2021/05/16,05:10,3.9,��,8.2
2021/05/16,05:20,3.8,��,7.9
2021/05/16,05:30,3.9,��,7.6
2021/05/16,05:40,3.8,��,7.7
2021/05/16,05:50,3.7,��,7.6
2021/05/16,06:00,4.0,��,6.5
2021/05/16,06:10,3.8,��,6.8
2021/05/16,06:20,3.9,��,8.6
2021/05/16,06:30,3.8,��,10.2
2021/05/16,06:40,3.8,��,9.1
2021/05/16,06:50,3.7,��쓌,10.7
2021/05/16,07:00,3.8,��쓌,12.8
2021/05/16,07:10,4.1,��쓌,11.9
2021/05/16,07:20,4.0,��쓌,9.5
2021/05/16,07:30,4.0,��쓌,8.5
2021/05/16,07:40,3.9,��쓌,9.7
2021/05/16,07:50,4.0,��쓌,10.2
2021/05/16,08:00,4.1,��쓌,10.7
2021/05/16,08:10,3.9,��쓌,11.7
2021/05/16,08:20,4.0,��쓌,12.8
2021/05/16,08:30,3.8,��쓌,15.2
2021/05/16,08:40,3.8,��,14.1
2021/05/16,08:50,4.0,��쓌,14.4
2021/05/16,09:00,4.0,��,13.5
2021/05/16,09:10,4.0,��쓌,14.6
2021/05/16,09:20,3.9,��쓌,13.8
2021/05/16,09:30,3.8,��쓌,14.6
2021/05/16,09:40,3.9,��쓌,15.2
2021/05/16,09:50,3.9,��,14.7
2021/05/16,10:00,3.9,��쓌,16.1
2021/05/16,10:10,4.0,��쓌,13.5
2021/05/16,10:20,3.9,��쓌,15.8
2021/05/16,10:30,3.9,��쓌,15.2
2021/05/16,10:40,3.9,��쓌,18.3
2021/05/16,10:50,3.7,��쓌,15.5
2021/05/16,11:00,3.9,��,14.7
2021/05/16,11:10,3.9,��,14.9
2021/05/16,11:20,3.8,��쓌,16.6
2021/05/16,11:30,3.7,��,19.4
2021/05/16,11:40,3.9,��쓌,18.0
2021/05/16,11:50,3.8,��,15.8
2021/05/16,12:00,3.7,��쓌,15.8
2021/05/16,12:10,3.9,��쓌,16.3
2021/05/16,12:20,4.0,��쓌,15.0
2021/05/16,12:30,3.9,��쓌,15.2
2021/05/16,12:40,3.9,��,17.4
2021/05/16,12:50,3.9,��쓌,16.6
2021/05/16,13:00,3.9,��쓌,17.6
2021/05/16,13:10,3.9,��쓌,18.3
2021/05/16,13:20,4.1,��쓌,15.2
2021/05/16,13:30,3.9,��,14.4
2021/05/16,13:40,3.8,��,11.6
2021/05/16,13:50,3.9,��쓌,13.0
2021/05/16,14:00,3.8,��,13.8
2021/05/16,14:10,3.9,��쓌,13.9
2021/05/16,14:20,3.9,��쓌,13.0
2021/05/16,14:30,3.9,��,13.1
2021/05/16,14:40,3.8,��쓌,11.3
2021/05/16,14:50,3.8,��,10.5
2021/05/16,15:00,3.9,��,9.8
2021/05/16,15:10,3.9,��,9.7
2021/05/16,15:20,4.0,��,9.0
2021/05/16,15:30,3.9,��,10.3
2021/05/16,15:40,3.9,��,8.9
2021/05/16,15:50,3.9,��,10.2
2021/05/16,16:00,4.0,��,8.7
2021/05/16,16:10,4.0,��,8.0
2021/05/16,16:20,3.8,��,8.1
2021/05/16,16:30,3.9,��,9.5
2021/05/16,16:40,3.9,��,9.4
2021/05/16,16:50,3.8,��쓌,9.8
2021/05/16,17:00,3.8,��,7.5
2021/05/16,17:10,3.9,��,7.1
2021/05/16,17:20,3.9,��,8.3
2021/05/16,17:30,3.9,��,7.1
2021/05/16,17:40,3.8,��,7.8
2021/05/16,17:50,3.8,��쓌,7.9
2021/05/16,18:00,4.0,��,9.7
2021/05/16,18:10,4.1,��,11.6
2021/05/16,18:20,3.9,��,10.5
2021/05/16,18:30,3.9,��,9.4
2021/05/16,18:40,3.8,��쓌,9.2
2021/05/16,18:50,4.1,��쓌,11.0
2021/05/16,19:00,3.8,��,13.1
2021/05/16,19:10,3.7,��,13.5
2021/05/16,19:20,3.9,��쓌,13.0
2021/05/16,19:30,3.9,��쓌,11.9
2021/05/16,19:40,3.9,��쓌,12.4
2021/05/16,19:50,4.0,��쓌,11.7
2021/05/16,20:00,3.9,��,10.2
2021/05/16,20:10,3.9,��,8.7
2021/05/16,20:20,3.9,��,8.8
2021/05/16,20:30,3.6,��,9.9
2021/05/16,20:40,3.9,��,10.7
2021/05/16,20:50,4.0,��,11.0
2021/05/16,21:00,4.0,��,9.1
2021/05/16,21:10,3.9,��,8.7
2021/05/16,21:20,3.8,��,10.5
2021/05/16,21:30,3.9,��,10.2
2021/05/16,21:40,4.0,��,11.0
2021/05/16,21:50,3.8,��,9.4
2021/05/16,22:00,4.0,��,7.9
2021/05/16,22:10,4.0,��,6.9
2021/05/16,22:20,3.8,��,8.8
2021/05/16,22:30,3.9,��,7.4
2021/05/16,22:40,4.0,��,9.4
2021/05/16,22:50,3.9,��,8.7
2021/05/16,23:00,3.8,��,8.6
2021/05/16,23:10,3.9,��,8.4
2021/05/16,23:20,3.9,��,9.6
2021/05/16,23:30,3.8,��,9.4
2021/05/16,23:40,3.8,��쓌,12.2
2021/05/16,23:50,3.9,��,12.5
